Flag for Monaco Weather past 2 weeks in Monaco, Monaco

Now
79 °F

Sunny.


Feels Like: 81 °F
Forecast: 69 / 80 °F
Wind: 21 mph from East

Location: Nice Airport

Current Time: Aug 27, 2014 at 7:37:32 PM

Latest Report: Aug 27, 2014 at 7:00 PM


Visibility: 10 mi

Pressure: 29.80 "Hg

Humidity: 65%

Dew point: 66 °F

Location of MonacoLocation

Historic Weather in Monaco — Graph

°F

Monaco temperature yesterday

Maximum temperature yesterday: 79 °F (at 4:00 PM)
Minimum temperature yesterday: 66 °F (at 2:00 AM)
Average temperature yesterday: 72 °F

Past Weeks' High & Low Weather Summary

 TemperatureHumidityPressure
High88 °F (Aug 23, 3:09 PM)89% (Aug 19, 10:00 PM)30.07 "Hg (Aug 19, 10:00 PM)
Low64 °F (Aug 17, 5:30 AM)31% (Aug 23, 3:09 PM)29.65 "Hg (Aug 13, 6:00 PM)
Average73 °F64%29.89 "Hg
* Reported Aug 12 6:00 PM — Aug 27 6:30 PM, Monaco, Weather by CustomWeather, © 2014

Note: Actual official high and low records may vary slightly from our data, if they occured in-between our weather recording intervals... More about our weather records

Advertising

Monaco weather history for previous 24 hours

 ConditionsComfort  
Time TempWeatherWind HumidityBarometerVisibility
6:30 PM
Aug 27
79 °FPassing clouds.21 mph65%29.80 "HgN/A
6:00 PM79 °FPassing clouds.21 mph65%29.77 "HgN/A
5:00 PM79 °FPassing clouds.23 mph65%29.77 "HgN/A
4:30 PM79 °FPassing clouds.22 mph70%29.77 "HgN/A
4:00 PM79 °FPassing clouds.23 mph70%29.77 "HgN/A
3:30 PM79 °FPassing clouds.25 mph74%29.77 "HgN/A
3:00 PM79 °FPassing clouds.23 mph70%29.77 "HgN/A
2:30 PM79 °FPassing clouds.23 mph70%29.77 "HgN/A
2:00 PM79 °FPassing clouds.23 mph70%29.77 "HgN/A
1:30 PM79 °FPassing clouds.23 mph74%29.80 "HgN/A
1:00 PM79 °FPassing clouds.20 mph70%29.80 "HgN/A
12:30 PM79 °FPassing clouds.16 mph70%29.80 "HgN/A
12:00 PM79 °FSunny.16 mph70%29.80 "Hg10 mi
11:30 AM77 °FSunny.17 mph74%29.80 "Hg10 mi
11:00 AM79 °FSunny.16 mph70%29.80 "Hg10 mi
10:30 AM77 °FSunny.15 mph69%29.80 "Hg10 mi
10:00 AM77 °FSunny.12 mph69%29.80 "Hg10 mi
9:30 AM79 °FSunny.9 mph61%29.77 "Hg10 mi
9:00 AM77 °FSunny.6 mph65%29.77 "Hg10 mi
8:30 AM77 °FPassing clouds.5 mph61%29.77 "HgN/A
8:00 AM73 °FSunny.3 mph69%29.77 "Hg10 mi
7:30 AM77 °FPassing clouds.5 mph54%29.77 "HgN/A
7:00 AM75 °FClear.8 mph61%29.74 "Hg10 mi
6:30 AM77 °FPassing clouds.7 mph54%29.74 "HgN/A
6:00 AM77 °FPassing clouds.6 mph57%29.74 "HgN/A
5:30 AM77 °FPassing clouds.9 mph57%29.74 "HgN/A
5:00 AM77 °FClear.10 mph57%29.74 "Hg10 mi
4:30 AM77 °FClear.13 mph57%29.74 "Hg10 mi
3:54 AM77 °FClear.16 mph57%29.74 "Hg10 mi
3:24 AM79 °FClear.14 mph54%29.77 "Hg10 mi
2:53 AM79 °FClear.12 mph58%29.77 "Hg10 mi
2:30 AM79 °FPassing clouds.8 mph54%29.77 "HgN/A
2:00 AM77 °FClear.9 mph57%29.77 "Hg10 mi
1:30 AM77 °FClear.14 mph61%29.77 "Hg10 mi
1:00 AM77 °FClear.12 mph57%29.77 "Hg10 mi
12:30 AM75 °FClear.7 mph74%29.77 "Hg10 mi
12:00 AM73 °FClear.5 mph78%29.80 "Hg10 mi
11:30 PM
Aug 26
73 °FPassing clouds.6 mph83%29.80 "HgN/A
11:00 PM73 °FClear.5 mph83%29.80 "Hg10 mi
10:30 PM75 °FClear.3 mph78%29.80 "Hg10 mi
10:00 PM75 °FPassing clouds.7 mph78%29.80 "HgN/A
9:30 PM75 °FPassing clouds.6 mph78%29.80 "HgN/A
9:00 PM75 °FBroken clouds.8 mph83%29.80 "HgN/A
8:30 PM75 °FBroken clouds.10 mph83%29.80 "HgN/A
8:00 PM75 °FBroken clouds.14 mph83%29.80 "HgN/A
7:30 PM75 °FScattered clouds.15 mph83%29.80 "HgN/A
7:10 PM75 °FScattered clouds.15 mph83%29.80 "HgN/A
7:00 PM75 °FScattered clouds.17 mph83%29.80 "HgN/A
Weather by CustomWeather, © 2014

See weather overviewHow to use our weather pages